Kirksville, MO

3:48 AM CST on January 17, 2018 (GMT -0600)
Kirksville Regional

Weather History for KIRK - March, 2014

Change the Weather History Date:

Friday, March 28, 2014

  Actual Average Record
Temperature  
Mean Temperature 40 °F 46 °F  
Max Temperature 44 °F 57 °F 79 °F (1945)
Min Temperature 36 °F 35 °F 13 °F (1921)
Degree Days  
Heating Degree Days 25 19  
Month to date heating degree days 857 697  
Since 1 July heating degree days 5827 5230  
Cooling Degree Days 0 0  
Month to date cooling degree days 0 0  
Year to date cooling degree days 0 0  
Moisture  
Dew Point 32 °F    
Average Humidity 77    
Maximum Humidity 89    
Minimum Humidity 65    
Precipitation  
Precipitation 0.00 in 0.09 in 1.50 in (1938)
Month to date precipitation 0.95 2.31  
Year to date precipitation 4.50 5.11  
Sea Level Pressure  
Sea Level Pressure 30.06 in    
Wind  
Wind Speed 7 mph (North)    
Max Wind Speed 18 mph    
Max Gust Speed 24 mph    
Visibility 8 miles    
Events      
T = Trace of Precipitation, MM = Missing Value Source: NWS Daily Summary

Daily Weather History Graph

Daily Weather History Graph

Search for Another Location

Airport or City:

Trip Planner

Search our weather history database for the weather conditions in past years. The results will help you decide how hot, cold, wet, or windy it might be!

Date:

Astronomy

Mar. 28, 2014 Rise Set
Actual Time 7:00 AM CDT 7:30 PM CDT
Civil Twilight 6:33 AM CDT 7:57 PM CDT
Nautical Twilight 6:01 AM CDT 8:29 PM CDT
Astronomical Twilight 5:28 AM CDT 9:02 PM CDT
Moon 5:31 AM CDT (3/28) 5:27 PM CDT (3/28)
Length of Visible Light 13h 24m
Length of Day
12h 29m
Waning Crescent, 6% of the Moon is Illuminated
Mar 28
Waning Crescent
Mar 30
New
Apr 7
First Quarter
Apr 15
Full
Apr 22
Last Quarter

Hourly Weather History & Observations

Time (CDT) Temp. Windchill Dew Point Humidity Pressure Visibility Wind Dir Wind Speed Gust Speed Precip Events Conditions
12:55 AM 37.9 °F 30.0 °F 32.0 °F 79% 29.76 in 10.0 mi WNW 12.7 mph 25.3 mph N/A   Overcast
1:55 AM 37.0 °F 28.1 °F 32.0 °F 82% 29.80 in 10.0 mi West 15.0 mph 24.2 mph N/A   Overcast
2:55 AM 37.0 °F 29.3 °F 32.0 °F 82% 29.84 in 10.0 mi WNW 11.5 mph - N/A   Overcast
3:55 AM 37.0 °F 29.8 °F 32.0 °F 82% 29.87 in 9.0 mi WNW 10.4 mph 17.3 mph N/A   Overcast
4:55 AM 37.0 °F 29.3 °F 30.9 °F 79% 29.89 in 9.0 mi NW 11.5 mph - N/A   Overcast
5:55 AM 36.0 °F 29.0 °F 32.0 °F 86% 29.92 in 9.0 mi NW 9.2 mph - N/A   Overcast
6:55 AM 36.0 °F 33.3 °F 30.9 °F 82% 29.96 in 10.0 mi Variable 3.5 mph - N/A   Overcast
7:55 AM 36.0 °F 28.5 °F 30.9 °F 82% 30.00 in 8.0 mi NNW 10.4 mph - N/A   Overcast
8:55 AM 37.0 °F 29.8 °F 30.9 °F 79% 30.02 in 8.0 mi NNW 10.4 mph - N/A   Overcast
9:55 AM 37.0 °F 29.3 °F 30.9 °F 79% 30.05 in 9.0 mi NNW 11.5 mph - N/A   Overcast
10:55 AM 39.0 °F 31.8 °F 32.0 °F 76% 30.07 in 8.0 mi North 11.5 mph - N/A   Overcast
11:55 AM 39.0 °F - 32.0 °F 76% 30.11 in 8.0 mi Calm Calm - N/A   Overcast
12:10 PM 39.9 °F 37.8 °F 32.0 °F 73% 30.08 in 9.0 mi Variable 3.5 mph - N/A   Overcast
12:55 PM 41.0 °F - 32.0 °F 70% 30.12 in 10.0 mi Calm Calm - N/A   Overcast
1:55 PM 42.1 °F 39.2 °F 32.0 °F 67% 30.13 in 10.0 mi NW 4.6 mph - N/A   Overcast
2:55 PM 43.0 °F - 33.1 °F 68% 30.12 in 10.0 mi Calm Calm - N/A   Overcast
3:55 PM 44.1 °F 40.8 °F 33.1 °F 65% 30.11 in 10.0 mi North 5.8 mph - N/A   Overcast
4:55 PM 44.1 °F 40.1 °F 33.1 °F 65% 30.10 in 10.0 mi NNE 6.9 mph - N/A   Overcast
5:55 PM 43.0 °F 38.8 °F 33.1 °F 68% 30.12 in 10.0 mi NE 6.9 mph - N/A   Overcast
6:55 PM 42.1 °F 36.6 °F 32.0 °F 67% 30.15 in 10.0 mi North 9.2 mph - N/A   Overcast
7:55 PM 39.9 °F 32.9 °F 32.0 °F 73% 30.16 in 10.0 mi NE 11.5 mph - N/A   Overcast
8:55 PM 37.9 °F 32.7 °F 32.0 °F 79% 30.18 in 6.0 mi NNE 6.9 mph - N/A   Haze
9:42 PM 37.0 °F 31.6 °F 30.9 °F 79% 30.15 in 5.0 mi NNE 6.9 mph - N/A   Haze
9:55 PM 37.0 °F 32.4 °F 30.9 °F 79% 30.19 in 5.0 mi NNE 5.8 mph - N/A   Haze
10:10 PM 37.0 °F 31.6 °F 30.9 °F 79% 30.15 in 5.0 mi North 6.9 mph - N/A   Haze
10:18 PM 37.0 °F 31.0 °F 30.9 °F 79% 30.15 in 5.0 mi NNE 8.1 mph - N/A   Haze
10:40 PM 37.0 °F 31.0 °F 30.9 °F 79% 30.16 in 5.0 mi NNE 8.1 mph - N/A   Haze
10:55 PM 37.0 °F 31.0 °F 30.9 °F 79% 30.19 in 5.0 mi NNE 8.1 mph - N/A   Haze
11:55 PM 36.0 °F 31.1 °F 30.9 °F 82% 30.21 in 4.0 mi North 5.8 mph - N/A   Haze